Hourly Data Report for October 01, 2017

All times are specified in Local Standard Time (LST). Add 1 hour to adjust for Daylight Saving Time where and when it is observed.

FORT GOOD HOPE CS
NORTHWEST TERRITORIES

66°14'32.044" N
128°38'39.081" W
81.70 m
2201450
71491
ZGH

Download Data

Hourly Data (October 2017)
Hourly Data Report for October 1, 2017
Temp Definition
°C
Dew Point Temp Definition
°C
Rel Hum Definition
%
Wind Dir Definition
10's deg

Wind Spd Definition
km/h
Visibility Definition
km
Stn Press Definition
kPa
Hmdx Definition


Wind Chill Definition


Weather Definition


TIME
00:00 -3.0 -5.8 81 15 5   101.02   -5 LegendNANA
01:00 -2.6 -5.1 83 21 10   101.01   -6 LegendNANA
02:00 -1.7 -4.5 81 16 5   101.03   -4 LegendNANA
03:00 -1.5 -4.2 82 22 5   101.05   -3 LegendNANA
04:00 -1.6 -3.8 85 19 9   101.04   -5 LegendNANA
05:00 0.3 -2.6 81 24 13   101.08     LegendNANA
06:00 1.3 -2.0 78 25 14   101.10     LegendNANA
07:00 0.4 -2.0 84 22 11   101.10     LegendNANA
08:00 0.7 -2.0 82 22 13   101.14     LegendNANA
09:00 2.8 -1.4 74 25 14   101.14     LegendNANA
10:00 4.8 -1.0 67 25 15   101.16     LegendNANA
11:00 6.3 -0.3 63 27 19   101.16     LegendNANA
12:00 6.9 -0.2 61 28 19   101.18     LegendNANA
13:00 9.2 0.6 55 28 22   101.22     LegendNANA
14:00 10.1 0.3 51 29 27   101.25     LegendNANA
15:00 9.7 0.6 53 28 28   101.32     LegendNANA
16:00 9.8 0.7 53 28 27   101.37     LegendNANA
17:00 9.7 0.8 54 28 22   101.39     LegendNANA
18:00 10.0 1.2 54 28 17   101.43     LegendNANA
19:00 8.4 0.8 59 29 9   101.48     LegendNANA
20:00 6.6 0.8 66 28 10   101.53     LegendNANA
21:00 4.9 -0.1 70 23 7   101.54     LegendNANA
22:00 4.8 -0.1 71 23 12   101.54     LegendNANA
23:00 3.8 -0.2 75 23 10   101.55     LegendNANA

Notes on Data Quality.

Legend

  • E = Estimated
  • M = Missing
  • NA = Not Available
  • ‡ = Partner data that is not subject to review by the National Climate Archives
Date modified: